STARLINK-11588 [DTC] (63319 NORAD) Tracking and Keplerian Element Data

This shows tracking and keplerian element data for the satellite.

Feedback or suggestion? Click here.




ElementValue
Catalog63319
NameSTARLINK-11588 [DTC]
Epoch Orbit4466
Epoch Day354.11456411
Epoch Year2025
RAAN24.0802
Inclination42.9999
Eccentricity0.000165
Argument of Perigee251.6154
Mean Anonmoly108.4534
Mean Motion15.70888899
Decay Rate0.00252789
L11 63319U 25057N 25354.11456411 .00252789 00000+0 19103-2 0 9991
L22 63319 42.9999 24.0802 0001650 251.6154 108.4534 15.70888899 44666



Live tracking and technical data element details for STARLINK-11588 [DTC] (NORAD 63319). STARLINK-11588 [DTC] can be tracked NOW for your location showing map with azimuth and elevation plus other details from your city location.







IsCatalogInMostPopularTable: catalog: 63319, numindb: 2
Update: records affected: 1



GetName: 63319 STARLINK-11588 [DTC]

Hit Count: updated at: Sat, 07 Feb 2026 08:41:34 GMT